Regional Weather Roundup
Issued by NWS Upton, NY

Current Version | Previous Version | Graphics & Text | Print | Product List | Glossary Off
Versions: 1 2 3 4 5 6 7 8 9 10 11 12 13 14 15 16 17 18 19 20 21 22 23 24 25 26 27

000
ASUS41 KOKX 250009
RWROKX

REGIONAL WEATHER ROUNDUP
NATIONAL WEATHER SERVICE NEW YORK NY
800 PM EDT WED MAY 24 2017

NOTE: "FAIR" INDICATES FEW OR NO CLOUDS BELOW 12,000 FEET WITH NO
SIGNIFICANT WEATHER AND/OR OBSTRUCTIONS TO VISIBILITY.

NYZ071-072-176-178-NJZ106-104-250100-
NEW YORK CITY METRO AREA

CITY           SKY/WX    TMP DP  RH WIND       PRES   REMARKS
Central Park   PTCLDY    62  51  67 S3        29.82R
Wall St Helipt CLOUDY    62  51  67 SE7       29.81R
Bronx Bot Gard   N/A     61  48  63 E1        29.79R
LaGuardia APRT MOCLDY    65  49  56 SE6       29.79R
Kennedy INTL   CLOUDY    61  53  75 E9        29.82R
Breezy Point     N/A     57 N/A N/A E7G14       N/A
Newark/Liberty MOCLDY    62  50  64 SE7       29.80R
Teterboro      PTCLDY    63  53  70 SW8       29.78R
$$

NYZ177-179-078>081-250100-
LONG ISLAND NEW YORK

CITY           SKY/WX    TMP DP  RH WIND       PRES   REMARKS
Jones Beach      N/A     57 N/A N/A E12G17      N/A
Matinecock PT  NOT AVBL
Farmingdale    CLOUDY    60  51  72 SE8       29.81R
MacArthur/ISP  CLOUDY    59  51  75 E10       29.80R
Shirley        PTCLDY    59  53  80 MISG      29.81R
Mt Sinai Harb    N/A    N/A N/A N/A E6          N/A
Westhampton    PTCLDY    56  49  77 E9        29.83R
East Hampton     N/A     56  48  74 E6        29.81R
Montauk          N/A     57  51  80 CALM      29.83R
$$

NYZ052-065-067-250100-
HUDSON VALLEY

CITY           SKY/WX    TMP DP  RH WIND       PRES   REMARKS
White Plains   CLOUDY    62  47  57 E6        29.79R
Larchmont Harb   N/A     61 N/A N/A NE12        N/A
Croton O-T Hud   N/A     64 N/A N/A SE2         N/A
Newburgh       NOT AVBL
Montgomery     PTCLDY    65  49  56 S6        29.77R
Poughkeepsie   CLOUDY    67  49  52 S6        29.76R
Albany         PTCLDY    71  46  40 SE6       29.76R
$$

NJZ001-105-106-008-010-013-015-019>022-104-250100-
NEW JERSEY

CITY           SKY/WX    TMP DP  RH WIND       PRES   REMARKS
Newark/Liberty MOCLDY    62  50  64 SE7       29.80R
Teterboro      PTCLDY    63  53  70 SW8       29.78R
Caldwell       PTCLDY    66  52  60 S9        29.80R
Somerville     MOCLDY    62  51  67 VRB3      29.77R
Linden           N/A     60  49  65 S7        29.80S
Perth Amboy      N/A     59 N/A N/A E13         N/A
Sussex         CLOUDY    64  49  57 SE7       29.79R
Andover          N/A     62  49  62 CALM      29.78R
Trenton        MOCLDY    63  49  60 SE10      29.78R
Millville      CLOUDY    60  54  80 E10       29.77F
Atlantic City  NOT AVBL
Wrightstown    CLOUDY    59  51  74 E8        29.77R
Toms River     CLOUDY    59  52  77 E7        29.81S
Belmar         CLOUDY    58  50  75 E8        29.81S
$$

PAZ047>061-062-071-250100-
EASTERN PENNSYLVANIA

CITY           SKY/WX    TMP DP  RH WIND       PRES   REMARKS
Philadelphia   CLOUDY    64  51  62 E14       29.78R
Allentown      CLOUDY    67  49  52 SE8       29.76R
Scranton       CLOUDY    67  48  50 SE5       29.74S
$$

CTZ002-004>006-009-010-012-RIZ004-006-007-MAZ004-011-015-250100-
SOUTHERN NEW ENGLAND
 IN CT

CITY           SKY/WX    TMP DP  RH WIND       PRES   REMARKS
Bradley INTL   PTCLDY    68  49  50 SE7       29.80R
Hartford       PTCLDY    68  49  50 E6        29.79R
Danbury        CLOUDY    60  51  72 CALM      29.80R
Wtrbury/Oxford MOCLDY    61  46  59 S7        29.81R
Bridgeport     CLOUDY    61  51  70 E9        29.80R
Meriden        CLOUDY    62  50  64 SW3       29.80R
New Haven      CLOUDY    59  49  69 E10       29.81R
Chester          N/A     59  52  77 SE3       29.82R
Groton         PTCLDY    59  49  69 E12       29.81R
Wilimantic     CLEAR     68  48  48 CALM      29.82R

 IN RI

CITY           SKY/WX    TMP DP  RH WIND       PRES   REMARKS
Providence     CLOUDY    61  50  67 E8        29.82R
Block Island   PTCLDY    56  52  86 E8G16     29.82R
Westerly       MOCLDY    60  51  72 E6        29.82R
 IN MA

CITY           SKY/WX    TMP DP  RH WIND       PRES   REMARKS
Boston         MOCLDY    56  51  84 E8        29.83S
Worcester      CLEAR     60  44  55 E6        29.83R
Westfield      PTCLDY    68  51  54 E5        29.79R
Provincetown   CLEAR     54  50  86 NE7       29.82F
Nantucket      CLOUDY    53  48  83 NE13      29.80R
$$

ANZ330-335-338-340-345-350-353-355-250100-
COASTAL MARINE OBSERVATIONS


STATION/POSITION TIME  SKY/WX   TEMP    WIND        PRES    VSBY  WAVE
                                AIR SEA DIR/SP/G                  HT/PER
                 (UTC)          (F)     (DEG/KT/KT) (MB)    (MI)  (FT/S)
NY HARB ENTRANCE 2350            58 58  110/ 16/ 17 1009.0          5/ 8
20 S FIRE ISLAND 2350            56 55   70/ 10/ 12 1008.9          5/ 8
GREAT SOUTH BAY  2330            59 65   90/ 16/ 17   N/A
23 SSW MONTAUK P 2350            55 55              1009.3          6/ 7
15 E BARNEGAT LI 2330               57                N/A           6/ 8
HUDSON CANYON    2250            53 53   50/ 16/ 17 1006.8          7/ 8
KINGS POINT      2330            61 58  230/  2/  3 1008.6
EXECUTION ROCKS  2345            61                   N/A
CENTRAL LI SOUND NOT AVBL
EASTERN LI SOUND NOT AVBL
ROBBINS REEF     2330            60     170/ 14/ 16 1009.4
$$


>>>>>>>>>>>>>>>>>>>>>>>>>>>> KEY <<<<<<<<<<<<<<<<<<<<<<<<<<<
>                                                          <
>     SKY/WX - Sky Condition/Present Weather               <
>     TMP    - Temperature in Fahrenheit                   <
>     DP     - Dew Point in Fahrenheit                     <
>     RH     - Relative Humidity in Percent                <
>     WIND   - Direction (from) and Speed in MPH           <
>     PRES   - Mean Sea Level Pressure (inches of Hg)      <
>     WCI    - Wind Chill Index                            <
>     VSB    - VISIBILITY IN MILES                         <
>     HX     - HEAT INDEX                                  <
>     TC     - TEMPERATURE IN CELSIUS                      <
>     VRB    - VARIABLE WIND DIRECTION                     <
>                                                          <
>>>>>>>>>>>>>>>>>>>>>>>>>>>> KEY <<<<<<<<<<<<<<<<<<<<<<<<<<<




USA.gov is the U.S. government's official web portal to all federal, state and local government web resources and services.